User: anonymous   Login
Location: South Tamworth Observatory
(43.8246°N, 71.3026°W)
Time: 14:40:28
(UTC-05:00)
Language:

Cosmos 1844 - Orbit

View from above orbital plane
View from above orbital plane
View from above satellite
View from above satellite

Ground track
Ground track

The orbit data is extracted from the following two-line orbital elements,

1 17973U 87041A   15032.23094475  .00000158  00000-0  10816-3 0  9412
2 17973 070.9011 300.6345 0032126 342.3755 185.6573 14.13977688430591
Epoch (UTC): 01 February 2015 05:32:33
Eccentricity: 0.0032126
inclination: 70.9011°
perigee height: 822 km
apogee height: 869 km
right ascension of ascending node: 300.6345°
argument of perigee: 342.3755°
revolutions per day: 14.13977688
mean anomaly at epoch: 185.6573°
orbit number at epoch: 43059

The dashed part of the orbit path shows where the satellite is in the earth's shadow,  

DLR